Time,TemperatureF,DewpointF,PressureIn,WindDirection,WindDirectionDegrees,WindSpeedMPH,WindSpeedGustMPH,Humidity,HourlyPrecipIn,Conditions,Clouds,dailyrainin,SoftwareType,DateUTC
2013-03-15 00:00:00,29.5,20.2,30.22,WNW,296,0.0,0.0,68,0.00,,,0.00,Wunderground v.1.15,2013-03-15 04:00:00,
2013-03-15 00:04:00,29.5,20.6,30.21,WNW,296,0.0,0.0,69,0.00,,,0.00,Wunderground v.1.15,2013-03-15 04:04:00,
2013-03-15 00:09:00,29.3,20.4,30.21,WNW,296,0.0,0.0,69,0.00,,,0.00,Wunderground v.1.15,2013-03-15 04:09:00,
2013-03-15 00:15:00,29.3,20.7,30.21,WNW,296,0.0,0.0,70,0.00,,,0.00,Wunderground v.1.15,2013-03-15 04:15:00,
2013-03-15 00:19:00,29.1,20.5,30.21,WNW,296,0.0,0.0,70,0.00,,,0.00,Wunderground v.1.15,2013-03-15 04:19:00,
2013-03-15 00:25:00,29.0,20.4,30.21,WNW,296,0.0,0.0,70,0.00,,,0.00,Wunderground v.1.15,2013-03-15 04:25:00,
2013-03-15 00:30:00,29.0,20.8,30.21,WNW,296,0.0,0.0,71,0.00,,,0.00,Wunderground v.1.15,2013-03-15 04:30:00,
2013-03-15 00:40:00,28.7,20.5,30.19,WNW,296,0.0,0.0,71,0.00,,,0.00,Wunderground v.1.15,2013-03-15 04:40:00,
2013-03-15 00:50:00,28.4,20.8,30.18,WNW,296,0.0,0.0,73,0.00,,,0.00,Wunderground v.1.15,2013-03-15 04:50:00,
2013-03-15 01:00:00,28.4,21.2,30.18,WNW,296,0.0,0.0,74,0.00,,,0.00,Wunderground v.1.15,2013-03-15 05:00:00,
2013-03-15 01:09:00,28.2,20.3,30.17,WNW,296,0.0,0.0,72,0.00,,,0.00,Wunderground v.1.15,2013-03-15 05:09:00,
2013-03-15 01:15:00,28.2,20.3,30.17,WNW,296,0.0,0.0,72,0.00,,,0.00,Wunderground v.1.15,2013-03-15 05:15:00,
2013-03-15 01:20:00,28.4,20.2,30.17,WNW,296,0.0,0.0,71,0.00,,,0.00,Wunderground v.1.15,2013-03-15 05:20:00,
2013-03-15 01:30:00,28.2,20.3,30.17,WNW,296,0.0,0.0,72,0.00,,,0.00,Wunderground v.1.15,2013-03-15 05:30:00,
2013-03-15 01:40:00,27.9,20.0,30.18,WNW,296,0.0,0.0,72,0.00,,,0.00,Wunderground v.1.15,2013-03-15 05:40:00,
2013-03-15 01:50:00,27.9,20.0,30.17,WNW,296,0.0,0.0,72,0.00,,,0.00,Wunderground v.1.15,2013-03-15 05:50:00,
2013-03-15 01:59:00,28.2,20.0,30.17,WNW,296,0.0,0.0,71,0.00,,,0.00,Wunderground v.1.15,2013-03-15 05:59:00,
2013-03-15 02:05:00,28.5,20.0,30.18,WNW,296,0.0,0.0,70,0.00,,,0.00,Wunderground v.1.15,2013-03-15 06:05:00,
2013-03-15 02:15:00,29.0,19.8,30.18,WNW,296,0.0,0.0,68,0.00,,,0.00,Wunderground v.1.15,2013-03-15 06:15:00,
2013-03-15 02:20:00,29.3,19.7,30.19,WNW,296,0.0,0.0,67,0.00,,,0.00,Wunderground v.1.15,2013-03-15 06:20:00,
2013-03-15 02:30:00,30.4,20.0,30.19,WNW,296,0.0,0.0,65,0.00,,,0.00,Wunderground v.1.15,2013-03-15 06:30:00,
2013-03-15 02:40:00,31.2,20.1,30.18,WNW,296,0.0,0.0,63,0.00,,,0.00,Wunderground v.1.15,2013-03-15 06:40:00,
2013-03-15 02:50:00,31.8,19.9,30.17,WNW,285,0.0,1.0,61,0.00,,,0.00,Wunderground v.1.15,2013-03-15 06:50:00,
2013-03-15 03:00:00,31.9,20.0,30.17,WNW,285,0.0,0.0,61,0.00,,,0.00,Wunderground v.1.15,2013-03-15 07:00:00,
2013-03-15 03:05:00,31.9,20.3,30.17,WNW,285,0.0,0.0,62,0.00,,,0.00,Wunderground v.1.15,2013-03-15 07:05:00,
2013-03-15 03:10:00,31.6,20.4,30.17,WNW,285,0.0,0.0,63,0.00,,,0.00,Wunderground v.1.15,2013-03-15 07:10:00,
2013-03-15 03:20:00,31.2,20.4,30.17,WNW,285,0.0,0.0,64,0.00,,,0.00,Wunderground v.1.15,2013-03-15 07:20:00,
2013-03-15 03:30:00,30.6,20.6,30.17,WNW,285,0.0,0.0,66,0.00,,,0.00,Wunderground v.1.15,2013-03-15 07:30:00,
2013-03-15 03:35:00,30.4,20.7,30.16,WNW,285,0.0,0.0,67,0.00,,,0.00,Wunderground v.1.15,2013-03-15 07:35:00,
2013-03-15 03:45:00,30.3,20.6,30.16,WNW,285,0.0,0.0,67,0.00,,,0.00,Wunderground v.1.15,2013-03-15 07:45:00,
2013-03-15 03:50:00,30.0,20.7,30.16,WNW,285,0.0,0.0,68,0.00,,,0.00,Wunderground v.1.15,2013-03-15 07:50:00,
2013-03-15 03:55:00,29.4,20.5,30.16,WNW,285,0.0,0.0,69,0.00,,,0.00,Wunderground v.1.15,2013-03-15 07:55:00,
2013-03-15 04:05:00,29.0,21.1,30.15,WNW,285,0.0,0.0,72,0.00,,,0.00,Wunderground v.1.15,2013-03-15 08:05:00,
2013-03-15 04:15:00,28.7,21.1,30.15,WNW,285,0.0,0.0,73,0.00,,,0.00,Wunderground v.1.15,2013-03-15 08:15:00,
2013-03-15 04:20:00,28.5,20.9,30.14,WNW,285,0.0,0.0,73,0.00,,,0.00,Wunderground v.1.15,2013-03-15 08:20:00,
2013-03-15 04:30:00,28.4,21.2,30.14,WNW,285,0.0,0.0,74,0.00,,,0.00,Wunderground v.1.15,2013-03-15 08:30:00,
2013-03-15 04:40:00,28.1,20.9,30.13,WNW,285,0.0,0.0,74,0.00,,,0.00,Wunderground v.1.15,2013-03-15 08:40:00,
2013-03-15 04:50:00,27.6,21.0,30.13,WNW,285,0.0,0.0,76,0.00,,,0.00,Wunderground v.1.15,2013-03-15 08:50:00,
2013-03-15 04:55:00,27.3,20.7,30.13,WNW,285,0.0,0.0,76,0.00,,,0.00,Wunderground v.1.15,2013-03-15 08:55:00,
2013-03-15 05:00:00,27.2,20.6,30.13,WNW,285,0.0,0.0,76,0.00,,,0.00,Wunderground v.1.15,2013-03-15 09:00:00,
2013-03-15 05:10:00,26.9,20.3,30.13,WNW,285,0.0,0.0,76,0.00,,,0.00,Wunderground v.1.15,2013-03-15 09:10:00,
2013-03-15 05:20:00,26.9,20.7,30.12,WNW,285,0.0,0.0,77,0.00,,,0.00,Wunderground v.1.15,2013-03-15 09:20:00,
2013-03-15 05:30:00,27.2,21.2,30.12,WNW,285,0.0,0.0,78,0.00,,,0.00,Wunderground v.1.15,2013-03-15 09:30:00,
2013-03-15 05:35:00,27.5,21.5,30.11,WNW,285,0.0,0.0,78,0.00,,,0.00,Wunderground v.1.15,2013-03-15 09:35:00,
2013-03-15 05:45:00,27.6,21.6,30.11,WNW,287,0.0,0.0,78,0.00,,,0.00,Wunderground v.1.15,2013-03-15 09:45:00,
2013-03-15 05:50:00,27.5,21.5,30.11,WNW,287,0.0,0.0,78,0.00,,,0.00,Wunderground v.1.15,2013-03-15 09:50:00,
2013-03-15 06:00:00,27.6,22.2,30.11,WNW,287,0.0,0.0,80,0.00,,,0.00,Wunderground v.1.15,2013-03-15 10:00:00,
2013-03-15 06:10:00,27.6,22.2,30.10,WNW,287,0.0,0.0,80,0.00,,,0.00,Wunderground v.1.15,2013-03-15 10:10:00,
2013-03-15 06:15:00,27.6,22.2,30.10,WNW,287,0.0,0.0,80,0.00,,,0.00,Wunderground v.1.15,2013-03-15 10:15:00,
2013-03-15 06:25:00,27.6,22.2,30.11,WNW,287,0.0,0.0,80,0.00,,,0.00,Wunderground v.1.15,2013-03-15 10:25:00,
2013-03-15 06:30:00,27.8,22.4,30.11,WNW,287,0.0,0.0,80,0.00,,,0.00,Wunderground v.1.15,2013-03-15 10:30:00,
2013-03-15 06:35:00,27.8,22.4,30.11,WNW,287,0.0,0.0,80,0.00,,,0.00,Wunderground v.1.15,2013-03-15 10:35:00,
2013-03-15 06:45:00,27.6,21.9,30.11,WNW,287,0.0,0.0,79,0.00,,,0.00,Wunderground v.1.15,2013-03-15 10:45:00,
2013-03-15 06:55:00,27.2,21.8,30.11,WNW,287,0.0,0.0,80,0.00,,,0.00,Wunderground v.1.15,2013-03-15 10:55:00,
2013-03-15 07:00:00,27.0,21.7,30.11,WNW,287,0.0,0.0,80,0.00,,,0.00,Wunderground v.1.15,2013-03-15 11:00:00,
2013-03-15 07:10:00,27.6,22.5,30.11,WNW,287,0.0,0.0,81,0.00,,,0.00,Wunderground v.1.15,2013-03-15 11:10:00,
2013-03-15 07:20:00,28.7,23.3,30.11,WNW,287,0.0,0.0,80,0.00,,,0.00,Wunderground v.1.15,2013-03-15 11:20:00,
2013-03-15 07:30:00,29.1,23.1,30.11,WNW,287,0.0,0.0,78,0.00,,,0.00,Wunderground v.1.15,2013-03-15 11:30:00,
2013-03-15 07:40:00,29.0,23.0,30.10,WNW,287,0.0,0.0,78,0.00,,,0.00,Wunderground v.1.15,2013-03-15 11:40:00,
2013-03-15 07:45:00,29.0,23.0,30.10,WNW,287,0.0,0.0,78,0.00,,,0.00,Wunderground v.1.15,2013-03-15 11:45:00,
2013-03-15 07:55:00,29.1,23.1,30.09,WNW,287,0.0,0.0,78,0.00,,,0.00,Wunderground v.1.15,2013-03-15 11:55:00,
2013-03-15 08:00:00,29.1,23.1,30.09,WNW,287,0.0,0.0,78,0.00,,,0.00,Wunderground v.1.15,2013-03-15 12:00:00,
2013-03-15 08:10:00,29.1,23.4,30.09,WNW,287,0.0,0.0,79,0.00,,,0.00,Wunderground v.1.15,2013-03-15 12:10:00,
2013-03-15 08:20:00,30.0,24.0,30.09,WNW,287,0.0,0.0,78,0.00,,,0.00,Wunderground v.1.15,2013-03-15 12:20:00,
2013-03-15 08:25:00,30.4,24.1,30.09,WNW,287,0.0,0.0,77,0.00,,,0.00,Wunderground v.1.15,2013-03-15 12:25:00,
2013-03-15 08:35:00,31.5,24.8,30.09,WNW,287,0.0,0.0,76,0.00,,,0.00,Wunderground v.1.15,2013-03-15 12:35:00,
2013-03-15 08:45:00,32.7,25.0,30.09,WNW,287,0.0,1.0,73,0.00,,,0.00,Wunderground v.1.15,2013-03-15 12:45:00,
2013-03-15 08:50:00,33.1,25.1,30.08,WNW,287,0.0,0.0,72,0.00,,,0.00,Wunderground v.1.15,2013-03-15 12:50:00,
2013-03-15 09:00:00,34.1,24.6,30.08,WNW,287,1.0,1.0,68,0.00,,,0.00,Wunderground v.1.15,2013-03-15 13:00:00,
2013-03-15 09:10:00,35.3,24.7,30.08,ESE,116,2.0,2.0,65,0.00,,,0.00,Wunderground v.1.15,2013-03-15 13:10:00,
2013-03-15 09:15:00,35.9,25.3,30.08,ESE,116,2.0,2.0,65,0.00,,,0.00,Wunderground v.1.15,2013-03-15 13:15:00,
2013-03-15 09:25:00,37.5,25.7,30.07,WNW,302,0.0,1.0,62,0.00,,,0.00,Wunderground v.1.15,2013-03-15 13:25:00,
2013-03-15 09:30:00,38.2,25.9,30.07,WNW,301,1.0,2.0,61,0.00,,,0.00,Wunderground v.1.15,2013-03-15 13:30:00,
2013-03-15 09:35:00,38.8,26.5,30.07,WNW,301,1.0,2.0,61,0.00,,,0.00,Wunderground v.1.15,2013-03-15 13:35:00,
2013-03-15 09:45:00,39.3,26.2,30.07,WSW,237,2.0,2.0,59,0.00,,,0.00,Wunderground v.1.15,2013-03-15 13:45:00,
2013-03-15 09:55:00,40.2,27.0,30.06,SSW,202,1.0,1.0,59,0.00,,,0.00,Wunderground v.1.15,2013-03-15 13:55:00,
2013-03-15 10:00:00,40.8,27.6,30.06,SSW,202,1.0,1.0,59,0.00,,,0.00,Wunderground v.1.15,2013-03-15 14:00:00,
2013-03-15 10:10:00,41.6,28.3,30.06,SW,215,1.0,1.0,59,0.00,,,0.00,Wunderground v.1.15,2013-03-15 14:10:00,
2013-03-15 10:20:00,42.1,28.4,30.05,SW,215,1.0,2.0,58,0.00,,,0.00,Wunderground v.1.15,2013-03-15 14:20:00,
2013-03-15 10:30:00,42.6,28.0,30.05,SW,215,1.0,1.0,56,0.00,,,0.00,Wunderground v.1.15,2013-03-15 14:30:00,
2013-03-15 10:35:00,43.1,29.3,30.04,SSE,167,2.0,3.0,58,0.00,,,0.00,Wunderground v.1.15,2013-03-15 14:35:00,
2013-03-15 10:40:00,43.3,29.1,30.04,South,179,3.0,3.0,57,0.00,,,0.00,Wunderground v.1.15,2013-03-15 14:40:00,
2013-03-15 10:50:00,44.6,29.4,30.04,WSW,243,2.0,3.0,55,0.00,,,0.00,Wunderground v.1.15,2013-03-15 14:50:00,
2013-03-15 11:00:00,45.4,29.3,30.04,SSW,205,3.0,3.0,53,0.00,,,0.00,Wunderground v.1.15,2013-03-15 15:00:00,
2013-03-15 11:10:00,45.8,29.6,30.03,SW,217,3.0,3.0,53,0.00,,,0.00,Wunderground v.1.15,2013-03-15 15:10:00,
2013-03-15 11:15:00,46.1,29.9,30.03,SW,216,4.0,5.0,53,0.00,,,0.00,Wunderground v.1.15,2013-03-15 15:15:00,
2013-03-15 11:25:00,47.0,29.8,30.02,SW,217,4.0,6.0,51,0.00,,,0.00,Wunderground v.1.15,2013-03-15 15:25:00,
2013-03-15 11:30:00,47.3,30.5,30.02,SSW,200,4.0,4.0,52,0.00,,,0.00,Wunderground v.1.15,2013-03-15 15:30:00,
2013-03-15 11:40:00,48.3,30.0,30.00,SW,219,2.0,3.0,49,0.00,,,0.00,Wunderground v.1.15,2013-03-15 15:40:00,
2013-03-15 11:50:00,48.8,30.5,29.99,SSW,209,2.0,2.0,49,0.00,,,0.00,Wunderground v.1.15,2013-03-15 15:50:00,
2013-03-15 12:00:00,49.6,30.7,29.99,SW,227,2.0,5.0,48,0.00,,,0.00,Wunderground v.1.15,2013-03-15 16:00:00,
2013-03-15 12:10:00,50.7,30.7,29.98,SW,219,2.0,2.0,46,0.00,,,0.00,Wunderground v.1.15,2013-03-15 16:10:00,
2013-03-15 12:15:00,51.0,31.5,29.98,SSW,192,2.0,2.0,47,0.00,,,0.00,Wunderground v.1.15,2013-03-15 16:15:00,
2013-03-15 12:25:00,52.0,31.3,29.97,West,270,3.0,7.0,45,0.00,,,0.00,Wunderground v.1.15,2013-03-15 16:25:00,
2013-03-15 12:30:00,52.3,31.6,29.97,WSW,258,4.0,5.0,45,0.00,,,0.00,Wunderground v.1.15,2013-03-15 16:30:00,
2013-03-15 12:40:00,52.8,32.0,29.96,SW,233,4.0,7.0,45,0.00,,,0.00,Wunderground v.1.15,2013-03-15 16:40:00,
2013-03-15 12:50:00,52.6,31.3,29.95,SW,229,4.0,4.0,44,0.00,,,0.00,Wunderground v.1.15,2013-03-15 16:50:00,
2013-03-15 13:00:00,53.2,31.3,29.95,SW,219,3.0,5.0,43,0.00,,,0.00,Wunderground v.1.15,2013-03-15 17:00:00,
2013-03-15 13:10:00,54.1,32.1,29.94,SSW,208,3.0,3.0,43,0.00,,,0.00,Wunderground v.1.15,2013-03-15 17:10:00,
2013-03-15 13:20:00,54.7,32.6,29.94,SSW,210,3.0,5.0,43,0.00,,,0.00,Wunderground v.1.15,2013-03-15 17:20:00,
2013-03-15 13:25:00,55.4,32.7,29.94,West,281,3.0,5.0,42,0.00,,,0.00,Wunderground v.1.15,2013-03-15 17:25:00,
2013-03-15 13:35:00,55.6,32.2,29.93,West,280,3.0,6.0,41,0.00,,,0.00,Wunderground v.1.15,2013-03-15 17:35:00,
2013-03-15 13:40:00,55.9,33.1,29.93,West,264,2.0,3.0,42,0.00,,,0.00,Wunderground v.1.15,2013-03-15 17:40:00,
2013-03-15 13:50:00,56.3,35.2,29.92,SW,226,2.0,2.0,45,0.00,,,0.00,Wunderground v.1.15,2013-03-15 17:50:00,
2013-03-15 14:00:00,56.9,33.4,29.92,SW,232,2.0,3.0,41,0.00,,,0.00,Wunderground v.1.15,2013-03-15 18:00:00,
2013-03-15 14:10:00,56.9,33.4,29.92,SW,220,4.0,8.0,41,0.00,,,0.00,Wunderground v.1.15,2013-03-15 18:10:00,
2013-03-15 14:15:00,56.7,33.8,29.92,SW,233,4.0,8.0,42,0.00,,,0.00,Wunderground v.1.15,2013-03-15 18:15:00,
2013-03-15 14:25:00,56.6,33.8,29.92,West,261,4.0,4.0,42,0.00,,,0.00,Wunderground v.1.15,2013-03-15 18:25:00,
2013-03-15 14:35:00,56.9,33.4,29.91,SSE,167,3.0,4.0,41,0.00,,,0.00,Wunderground v.1.15,2013-03-15 18:35:00,
2013-03-15 14:45:00,57.2,33.7,29.91,South,171,3.0,7.0,41,0.00,,,0.00,Wunderground v.1.15,2013-03-15 18:45:00,
2013-03-15 14:50:00,56.9,34.0,29.90,WSW,251,4.0,4.0,42,0.00,,,0.00,Wunderground v.1.15,2013-03-15 18:50:00,
2013-03-15 15:00:00,57.3,34.4,29.90,WSW,257,4.0,12.0,42,0.00,,,0.00,Wunderground v.1.15,2013-03-15 19:00:00,
2013-03-15 15:10:00,57.0,34.1,29.89,West,261,5.0,5.0,42,0.00,,,0.00,Wunderground v.1.15,2013-03-15 19:10:00,
2013-03-15 15:15:00,57.2,34.3,29.89,SW,219,5.0,7.0,42,0.00,,,0.00,Wunderground v.1.15,2013-03-15 19:15:00,
2013-03-15 15:25:00,57.5,34.6,29.89,WSW,246,3.0,4.0,42,0.00,,,0.00,Wunderground v.1.15,2013-03-15 19:25:00,
2013-03-15 15:35:00,57.6,34.7,29.89,WSW,239,3.0,5.0,42,0.00,,,0.00,Wunderground v.1.15,2013-03-15 19:35:00,
2013-03-15 15:45:00,57.6,34.7,29.89,WSW,256,3.0,3.0,42,0.00,,,0.00,Wunderground v.1.15,2013-03-15 19:45:00,
2013-03-15 15:50:00,57.6,34.7,29.89,WSW,239,3.0,5.0,42,0.00,,,0.00,Wunderground v.1.15,2013-03-15 19:50:00,
2013-03-15 16:00:00,57.5,34.6,29.89,SSW,212,5.0,5.0,42,0.00,,,0.00,Wunderground v.1.15,2013-03-15 20:00:00,
2013-03-15 16:10:00,58.1,35.1,29.88,WSW,241,2.0,2.0,42,0.00,,,0.00,Wunderground v.1.15,2013-03-15 20:10:00,
2013-03-15 16:20:00,58.1,35.1,29.87,West,270,4.0,4.0,42,0.00,,,0.00,Wunderground v.1.15,2013-03-15 20:20:00,
2013-03-15 16:25:00,58.3,35.9,29.87,SSW,210,4.0,8.0,43,0.00,,,0.00,Wunderground v.1.15,2013-03-15 20:25:00,
2013-03-15 16:35:00,58.4,35.4,29.86,West,267,4.0,5.0,42,0.00,,,0.00,Wunderground v.1.15,2013-03-15 20:35:00,
2013-03-15 16:45:00,59.0,35.3,29.86,West,263,2.0,3.0,41,0.00,,,0.00,Wunderground v.1.15,2013-03-15 20:45:00,
2013-03-15 16:50:00,59.2,34.9,29.86,SW,226,3.0,7.0,40,0.00,,,0.00,Wunderground v.1.15,2013-03-15 20:50:00,
2013-03-15 17:00:00,58.9,35.2,29.86,SSW,198,5.0,5.0,41,0.00,,,0.00,Wunderground v.1.15,2013-03-15 21:00:00,
2013-03-15 17:10:00,58.9,35.8,29.86,WNW,302,4.0,8.0,42,0.00,,,0.00,Wunderground v.1.15,2013-03-15 21:10:00,
2013-03-15 17:20:00,58.9,35.8,29.85,West,281,3.0,3.0,42,0.00,,,0.00,Wunderground v.1.15,2013-03-15 21:20:00,
2013-03-15 17:25:00,58.9,35.8,29.85,West,277,2.0,5.0,42,0.00,,,0.00,Wunderground v.1.15,2013-03-15 21:25:00,
2013-03-15 17:30:00,58.9,35.8,29.85,WSW,244,2.0,2.0,42,0.00,,,0.00,Wunderground v.1.15,2013-03-15 21:30:00,
2013-03-15 17:40:00,59.0,35.9,29.85,WSW,258,2.0,3.0,42,0.00,,,0.00,Wunderground v.1.15,2013-03-15 21:40:00,
2013-03-15 17:50:00,59.0,35.9,29.85,WSW,250,2.0,2.0,42,0.00,,,0.00,Wunderground v.1.15,2013-03-15 21:50:00,
2013-03-15 18:00:00,59.2,36.1,29.85,West,265,1.0,2.0,42,0.00,,,0.00,Wunderground v.1.15,2013-03-15 22:00:00,
2013-03-15 18:10:00,59.0,36.5,29.85,SW,233,3.0,3.0,43,0.00,,,0.00,Wunderground v.1.15,2013-03-15 22:10:00,
2013-03-15 18:15:00,58.9,36.4,29.85,WSW,253,2.0,3.0,43,0.00,,,0.00,Wunderground v.1.15,2013-03-15 22:15:00,
2013-03-15 18:20:00,58.9,36.4,29.85,West,268,2.0,2.0,43,0.00,,,0.00,Wunderground v.1.15,2013-03-15 22:20:00,
2013-03-15 18:30:00,58.7,36.8,29.85,West,271,1.0,1.0,44,0.00,,,0.00,Wunderground v.1.15,2013-03-15 22:30:00,
2013-03-15 18:40:00,58.4,36.6,29.85,WSW,258,1.0,1.0,44,0.00,,,0.00,Wunderground v.1.15,2013-03-15 22:40:00,
2013-03-15 18:50:00,58.3,36.5,29.86,SSW,213,3.0,3.0,44,0.00,,,0.00,Wunderground v.1.15,2013-03-15 22:50:00,
2013-03-15 18:55:00,58.1,36.9,29.86,West,261,3.0,3.0,45,0.00,,,0.00,Wunderground v.1.15,2013-03-15 22:55:00,
2013-03-15 19:05:00,58.0,36.8,29.86,West,274,2.0,3.0,45,0.00,,,0.00,Wunderground v.1.15,2013-03-15 23:05:00,
2013-03-15 19:15:00,57.8,37.1,29.86,WNW,282,2.0,2.0,46,0.00,,,0.00,Wunderground v.1.15,2013-03-15 23:15:00,
2013-03-15 19:20:00,57.6,37.0,29.86,West,263,2.0,2.0,46,0.00,,,0.00,Wunderground v.1.15,2013-03-15 23:20:00,
2013-03-15 19:30:00,57.3,37.2,29.86,WSW,256,2.0,2.0,47,0.00,,,0.00,Wunderground v.1.15,2013-03-15 23:30:00,
2013-03-15 19:40:00,56.9,37.4,29.87,WSW,257,1.0,1.0,48,0.00,,,0.00,Wunderground v.1.15,2013-03-15 23:40:00,
2013-03-15 19:50:00,56.6,37.1,29.87,West,261,1.0,1.0,48,0.00,,,0.00,Wunderground v.1.15,2013-03-15 23:50:00,
2013-03-15 20:00:00,56.3,37.4,29.87,West,267,1.0,2.0,49,0.00,,,0.00,Wunderground v.1.15,2013-03-16 00:00:00,
2013-03-15 20:05:00,56.2,37.3,29.87,West,271,1.0,2.0,49,0.00,,,0.00,Wunderground v.1.15,2013-03-16 00:05:00,
2013-03-15 20:15:00,56.0,37.1,29.87,West,261,1.0,4.0,49,0.00,,,0.00,Wunderground v.1.15,2013-03-16 00:15:00,
2013-03-15 20:20:00,55.9,37.5,29.87,West,265,1.0,3.0,50,0.00,,,0.00,Wunderground v.1.15,2013-03-16 00:20:00,
2013-03-15 20:30:00,55.9,37.5,29.87,West,268,1.0,1.0,50,0.00,,,0.00,Wunderground v.1.15,2013-03-16 00:30:00,
2013-03-15 20:40:00,55.7,37.3,29.87,WNW,301,0.0,2.0,50,0.00,,,0.00,Wunderground v.1.15,2013-03-16 00:40:00,
2013-03-15 20:50:00,55.6,37.7,29.87,WNW,299,1.0,1.0,51,0.00,,,0.00,Wunderground v.1.15,2013-03-16 00:50:00,
2013-03-15 20:55:00,55.6,37.7,29.87,WNW,295,1.0,1.0,51,0.00,,,0.00,Wunderground v.1.15,2013-03-16 00:55:00,
2013-03-15 21:05:00,55.4,37.6,29.87,WNW,295,1.0,3.0,51,0.00,,,0.00,Wunderground v.1.15,2013-03-16 01:05:00,
2013-03-15 21:10:00,55.3,38.0,29.87,WNW,295,0.0,0.0,52,0.00,,,0.00,Wunderground v.1.15,2013-03-16 01:10:00,
2013-03-15 21:20:00,54.8,38.0,29.86,WNW,295,0.0,0.0,53,0.00,,,0.00,Wunderground v.1.15,2013-03-16 01:20:00,
2013-03-15 21:30:00,54.2,37.9,29.86,WNW,295,0.0,0.0,54,0.00,,,0.00,Wunderground v.1.15,2013-03-16 01:30:00,
2013-03-15 21:40:00,53.8,38.0,29.85,WNW,295,0.0,0.0,55,0.00,,,0.00,Wunderground v.1.15,2013-03-16 01:40:00,
2013-03-15 21:50:00,53.5,38.2,29.85,WNW,295,0.0,0.0,56,0.00,,,0.00,Wunderground v.1.15,2013-03-16 01:50:00,
2013-03-15 22:00:00,53.1,38.3,29.85,WNW,295,0.0,0.0,57,0.00,,,0.00,Wunderground v.1.15,2013-03-16 02:00:00,
2013-03-15 22:05:00,52.9,38.5,29.85,WNW,295,1.0,2.0,58,0.00,,,0.00,Wunderground v.1.15,2013-03-16 02:05:00,
2013-03-15 22:15:00,52.6,38.7,29.85,WNW,295,1.0,2.0,59,0.00,,,0.00,Wunderground v.1.15,2013-03-16 02:15:00,
2013-03-15 22:20:00,52.5,38.6,29.85,WNW,295,0.0,0.0,59,0.00,,,0.00,Wunderground v.1.15,2013-03-16 02:20:00,
2013-03-15 22:30:00,52.2,38.7,29.85,WNW,295,0.0,0.0,60,0.00,,,0.00,Wunderground v.1.15,2013-03-16 02:30:00,
2013-03-15 22:40:00,51.7,39.1,29.85,WNW,295,0.0,0.0,62,0.00,,,0.00,Wunderground v.1.15,2013-03-16 02:40:00,
2013-03-15 22:50:00,51.0,38.8,29.84,WNW,295,0.0,0.0,63,0.00,,,0.00,Wunderground v.1.15,2013-03-16 02:50:00,
2013-03-15 22:55:00,50.5,38.8,29.84,WNW,295,0.0,0.0,64,0.00,,,0.00,Wunderground v.1.15,2013-03-16 02:55:00,
2013-03-15 23:05:00,49.8,38.9,29.84,WNW,295,0.0,0.0,66,0.00,,,0.00,Wunderground v.1.15,2013-03-16 03:05:00,
2013-03-15 23:15:00,49.5,38.6,29.84,WNW,295,0.0,0.0,66,0.00,,,0.00,Wunderground v.1.15,2013-03-16 03:15:00,
2013-03-15 23:20:00,49.4,38.5,29.83,WNW,295,0.0,0.0,66,0.00,,,0.00,Wunderground v.1.15,2013-03-16 03:20:00,
2013-03-15 23:30:00,49.5,38.2,29.83,WNW,295,0.0,0.0,65,0.00,,,0.00,Wunderground v.1.15,2013-03-16 03:30:00,
2013-03-15 23:40:00,49.5,38.6,29.83,WNW,295,0.0,0.0,66,0.00,,,0.00,Wunderground v.1.15,2013-03-16 03:40:00,
2013-03-15 23:50:00,49.4,38.9,29.82,WNW,295,0.0,0.0,67,0.00,,,0.00,Wunderground v.1.15,2013-03-16 03:50:00,